Flag for Canada Weather past 2 weeks in Rouyn-Noranda, Quebec, Canada

Now
12 °F

Light snow. Mostly cloudy.


Feels Like: 0 °F
Forecast: -4 / 15 °F
Wind: 9 mph from Northwest

Location: Rouyn Airport

Current Time: Mar 2, 2015 at 8:33:18 AM

Latest Report: Mar 2, 2015 at 8:00 AM


Visibility: 1 mi

Pressure: 30.00 "Hg

Humidity: 92%

Dew point: 10 °F

Location of Rouyn-NorandaLocation

Historic Weather in Rouyn-Noranda — Graph

°F

Rouyn-Noranda temperature yesterday

Maximum temperature yesterday: 19 °F (at 1:00 PM)
Minimum temperature yesterday: 3 °F (at 4:00 AM)
Average temperature yesterday: 13 °F

Past Weeks' High & Low Weather Summary

 TemperatureHumidityPressure
High23 °F (Feb 28, 4:00 PM)93% (Mar 1, 11:51 PM)30.50 "Hg (Mar 1, 11:51 PM)
Low-31 °F (Feb 16, 4:00 AM)45% (Feb 20, 3:00 PM)29.39 "Hg (Feb 24, 9:00 PM)
Average-4 °F71%30.10 "Hg
* Reported Feb 15 7:00 AM — Mar 2 7:00 AM, Rouyn-Noranda, Weather by CustomWeather, © 2015

Note: Actual official high and low records may vary slightly from our data, if they occured in-between our weather recording intervals... More about our weather records

Advertising

Rouyn-Noranda weather history for previous 24 hours

 ConditionsComfort  
Time TempWeatherWind HumidityBarometerVisibility
7:00 AM
Mon, Mar 2
7 °FLight snow. Mostly cloudy.7 mph85%29.97 "Hg2 mi
6:50 AM7 °FLight snow. Mostly cloudy.7 mph92%29.96 "Hg4 mi
6:00 AM7 °FLight snow. Overcast.7 mph92%29.95 "Hg3 mi
5:00 AM9 °FLight snow. Passing clouds.9 mph85%29.92 "Hg3 mi
4:00 AM9 °FLight snow. Passing clouds.9 mph92%29.92 "Hg12 mi
3:00 AM7 °FLight snow. Passing clouds.8 mph92%29.93 "Hg6 mi
2:55 AM7 °FLight snow. Passing clouds.8 mph92%29.93 "Hg4 mi
2:00 AM12 °FLight snow. Passing clouds.10 mph85%29.95 "Hg2 mi
1:00 AM14 °FLight snow. Passing clouds.16 mph85%29.95 "Hg2 mi
12:00 AM16 °FLight snow. Passing clouds.14 mph86%29.97 "Hg2 mi
11:51 PM
Sun, Mar 1
16 °FLight snow. Passing clouds.13 mph93%29.97 "Hg2 mi
11:00 PM18 °FLight snow. Overcast.10 mph86%29.98 "Hg2 mi
10:00 PM18 °FLight snow. Overcast.12 mph86%29.99 "Hg2 mi
9:45 PM18 °FLight snow. Overcast.10 mph86%30.00 "Hg2 mi
9:00 PM18 °FLight snow. Passing clouds.12 mph86%30.01 "Hg4 mi
8:00 PM18 °FLight snow. Passing clouds.12 mph79%30.03 "Hg15 mi
7:00 PM18 °FLight snow. Partly cloudy.10 mph73%30.04 "Hg15 mi
6:00 PM19 °FPartly cloudy.14 mph68%30.04 "Hg15 mi
5:00 PM19 °FPartly sunny.17 mph63%30.06 "Hg15 mi
4:00 PM19 °FPartly sunny.18 mph58%30.08 "Hg15 mi
3:00 PM19 °FMostly cloudy.16 mph58%30.10 "Hg15 mi
2:00 PM19 °FMostly cloudy.20 mph58%30.13 "Hg15 mi
1:00 PM19 °FPartly sunny.18 mph53%30.15 "Hg15 mi
12:00 PM18 °FBroken clouds.18 mph62%30.20 "Hg15 mi
11:00 AM14 °FBroken clouds.13 mph73%30.25 "Hg15 mi
10:00 AM10 °FLight snow. Partly sunny.14 mph79%30.29 "Hg15 mi
9:00 AM9 °FLight snow. Mostly cloudy.9 mph85%30.32 "Hg15 mi
8:00 AM5 °FLight snow. Partly sunny.9 mph85%30.33 "Hg6 mi
Weather by CustomWeather, © 2015

See weather overviewHow to use our weather pages